Location: *
(2.7500°S, 66.6833°W)
Time: 00:32:52
(UTC+00:00)

DELTA 2 DEB (DPAF) - Pass Details

Date: 24 May 2024
Orbit: 596 x 599 km, 98.4° (Epoch: 13 June)

Event Time Altitude Azimuth Distance (km) Brightness Sun altitude
Rises 23:36:38 0° 21° (NNE) 2,832 7.5 -18.0°
Reaches altitude 10° 23:38:49 10° 25° (NNE) 1,933 6.5 -18.5°
Maximum altitude 23:42:54 53° 102° (ESE) 740 4.0 -19.5°
Enters shadow 23:44:07 39° 153° (SSE) 909 4.5 -19.7°
